Location: Palo Alto
(37.4420°N, 122.1420°W)
Time: 16:03:05
(UTC-07:00)

ISS - All Passes

Search period start: 30 July 2015 00:00
Search period end: 09 August 2015 00:00
Orbit: 402 x 403 km, 51.6° (Epoch: 30 July)

Date Brightness Start Highest point End Pass type
(mag) Time Alt. Az. Time Alt. Az. Time Alt. Az.
30 Jul - 04:10:04 10° NNW 04:12:41 22° NNE 04:15:18 10° E visible
30 Jul - 05:46:07 10° WNW 05:49:13 40° SW 05:52:17 10° SSE daylight
30 Jul - 20:48:50 10° SSE 20:50:47 15° SE 20:52:49 10° E visible
30 Jul - 22:23:50 10° WSW 22:26:58 45° NW 22:30:07 10° NE visible
31 Jul - 00:03:13 10° NNW 00:04:05 11° NNW 00:04:53 10° N visible
31 Jul - 03:17:31 10° NNW 03:19:25 15° NNE 03:21:22 10° ENE visible
31 Jul - 04:53:00 10° NW 04:56:16 90° WNW 04:59:31 10° SE visible
31 Jul - 21:30:37 10° SW 21:33:52 85° SE 21:37:08 10° NE visible
31 Jul - 23:08:42 10° WNW 23:10:42 15° NNW 23:12:39 10° NNE visible
01 Aug - 02:25:21 10° N 02:26:00 10° NNE 02:26:43 10° NNE visible
01 Aug - 04:00:01 10° NW 04:03:08 43° NE 04:06:16 10° ESE visible
01 Aug - 05:37:11 10° W 05:39:20 16° SW 05:41:23 10° S visible
01 Aug - 20:37:46 10° SSW 20:40:48 38° SE 20:43:52 10° ENE visible
01 Aug - 22:14:39 10° W 22:17:19 22° NNW 22:19:58 10° NNE visible
02 Aug - 03:07:07 10° NNW 03:09:51 24° NNE 03:12:37 10° E night (unlit)
02 Aug - 04:43:20 10° WNW 04:46:19 33° SW 04:49:16 10° SSE visible
02 Aug - 19:45:26 10° S 19:47:44 18° SE 19:50:05 10° E daylight
02 Aug - 21:20:53 10° WSW 21:23:57 38° NW 21:27:02 10° NE visible
03 Aug - 02:14:19 10° NNW 02:16:25 16° NNE 02:18:33 10° ENE night (unlit)
03 Aug - 03:49:55 10° NW 03:53:10 74° SW 03:56:24 10° SE night (unlit)
03 Aug - 20:27:24 10° SW 20:30:38 79° NW 20:33:54 10° NE daylight
03 Aug - 22:05:44 10° NW 22:07:31 14° NNW 22:09:15 10° N visible
04 Aug - 01:21:45 10° N 01:22:50 11° NNE 01:23:57 10° NE visible
04 Aug - 02:56:41 10° NW 02:59:53 51° NE 03:03:03 10° ESE night (unlit)
04 Aug - 04:34:16 10° W 04:35:59 13° SW 04:37:37 10° SSW night (unlit)
04 Aug - 19:34:13 10° SSW 19:37:20 46° SE 19:40:29 10° ENE daylight
04 Aug - 21:11:24 10° WNW 21:13:55 20° NNW 21:16:25 10° NNE visible
05 Aug - 02:03:33 10° NNW 02:06:24 28° NNE 02:09:16 10° E night (unlit)
05 Aug - 03:39:57 10° WNW 03:42:47 27° SW 03:45:35 10° SSE night (unlit)
05 Aug - 18:41:31 10° S 18:44:03 21° SE 18:46:39 10° E daylight
05 Aug - 20:17:20 10° W 20:20:20 33° NNW 20:23:21 10° NNE daylight
06 Aug - 01:10:30 10° NNW 01:12:47 17° NNE 01:15:05 10° ENE visible
06 Aug - 02:46:14 10° NW 02:49:27 61° SW 02:52:39 10° SE night (unlit)
06 Aug - 17:50:16 10° SE 17:50:45 10° SE 17:51:23 10° ESE daylight
06 Aug - 19:23:34 10° WSW 19:26:47 67° NW 19:30:02 10° NE daylight
06 Aug - 21:02:10 10° NW 21:03:44 13° NNW 21:05:14 10° N visible
07 Aug - 00:17:39 10° N 00:19:00 12° NNE 00:20:25 10° NE visible
07 Aug - 01:52:45 10° NW 01:55:58 60° NE 01:59:11 10° ESE night (unlit)
07 Aug - 03:30:52 10° WSW 03:32:02 11° SW 03:33:04 10° SSW night (unlit)
07 Aug - 18:30:06 10° SW 18:33:17 55° SE 18:36:29 10° ENE daylight
07 Aug - 20:07:31 10° WNW 20:09:54 18° NNW 20:12:16 10° NNE daylight
08 Aug - 00:59:23 10° NNW 01:02:20 31° NNE 01:05:17 10° E night (unlit)
08 Aug - 02:35:58 10° WNW 02:38:38 23° SW 02:41:16 10° S night (unlit)
08 Aug - 17:37:04 10° S 17:39:46 25° SE 17:42:32 10° ENE daylight
08 Aug - 19:13:11 10° W 19:16:06 30° NNW 19:19:01 10° NNE daylight
